| time (UTC) | temp F | wind direction | speed MPH | gust MPH | rain 1hr in | rain 24hr in | rain mn in | humidity % | barometer mb |
| 20260904060500 | 75 | 270 | 1.0 | 2.0 | 0.00 | 0.00 | 0.00 | 85 | 1023.1 |
| 20260904055437 | 76 | 248 | 1.0 | 2.0 | 0.00 | 0.00 | 0.00 | 84 | 1023.0 |
| 20260904054433 | 76 | 0.0 | 0.0 | 0.00 | 0.00 | 0.00 | 84 | 1023.0 | |
| 20260904053430 | 76 | 0.0 | 0.0 | 0.00 | 0.00 | 0.00 | 84 | 1023.1 | |
| 20260904052427 | 76 | 0.0 | 0.0 | 0.00 | 0.00 | 0.00 | 84 | 1023.1 | |
| 20260904051424 | 76 | 0.0 | 0.0 | 0.00 | 0.00 | 0.00 | 84 | 1023.1 | |
| 20260904050421 | 76 | 0.0 | 0.0 | 0.00 | 0.00 | 0.00 | 84 | 1023.2 | |
| 20260904045417 | 76 | 0.0 | 0.0 | 0.00 | 0.00 | 0.00 | 84 | 1023.2 | |
| 20260904044534 | 76 | 0.0 | 0.0 | 0.00 | 0.00 | 0.00 | 84 | 1023.0 | |
| 20260904043511 | 76 | 0.0 | 0.0 | 0.00 | 0.00 | 0.00 | 84 | 1023.2 | |
| 20260904042508 | 76 | 0.0 | 0.0 | 0.00 | 0.00 | 0.00 | 84 | 1023.2 | |
| 20260904041505 | 76 | 0.0 | 2.0 | 0.00 | 0.00 | 0.00 | 84 | 1023.2 | |
| 20260904040501 | 76 | 0.0 | 0.0 | 0.00 | 0.00 | 0.00 | 84 | 1023.1 | |
| 20260904035459 | 76 | 0.0 | 0.0 | 0.00 | 0.00 | 0.00 | 84 | 1023.2 | |
| 20260904034456 | 76 | 0.0 | 0.0 | 0.00 | 0.00 | 0.00 | 84 | 1023.2 | |
| 20260904033452 | 76 | 0.0 | 2.0 | 0.00 | 0.00 | 0.00 | 84 | 1023.3 | |
| 20260904032448 | 76 | 248 | 1.0 | 2.0 | 0.00 | 0.00 | 0.00 | 83 | 1023.3 |
| 20260904031505 | 76 | 264 | 2.0 | 4.0 | 0.00 | 0.00 | 0.00 | 84 | 1023.3 |
| 20260904030442 | 77 | 248 | 2.0 | 4.0 | 0.00 | 0.00 | 0.00 | 83 | 1023.4 |
| 20260904025459 | 77 | 248 | 1.0 | 2.0 | 0.00 | 0.00 | 0.00 | 83 | 1023.3 |
| 20260904024435 | 77 | 248 | 1.0 | 2.0 | 0.00 | 0.00 | 0.00 | 83 | 1023.2 |
| 20260904023432 | 77 | 0.0 | 0.0 | 0.00 | 0.00 | 0.00 | 83 | 1023.3 | |
| 20260904022429 | 77 | 248 | 2.0 | 2.0 | 0.00 | 0.00 | 0.00 | 83 | 1023.4 |
| 20260904021427 | 76 | 248 | 2.0 | 2.0 | 0.00 | 0.00 | 0.00 | 83 | 1023.5 |
| 20260904020422 | 76 | 262 | 1.0 | 4.0 | 0.00 | 0.00 | 0.00 | 85 | 1023.6 |
| 20260904015420 | 76 | 0.0 | 2.0 | 0.00 | 0.00 | 0.00 | 86 | 1023.6 | |
| 20260904014437 | 77 | 270 | 2.0 | 2.0 | 0.00 | 0.00 | 0.00 | 86 | 1023.6 |
| 20260904013534 | 77 | 248 | 2.0 | 4.0 | 0.00 | 0.00 | 0.00 | 86 | 1023.7 |
| 20260904012511 | 77 | 261 | 2.0 | 4.0 | 0.00 | 0.00 | 0.00 | 86 | 1023.8 |
| 20260904011508 | 77 | 0.0 | 2.0 | 0.00 | 0.00 | 0.00 | 86 | 1023.9 | |
| 20260904010503 | 78 | 248 | 3.0 | 4.0 | 0.00 | 0.00 | 0.00 | 86 | 1023.9 |
| 20260904005500 | 78 | 270 | 2.0 | 4.0 | 0.00 | 0.00 | 0.00 | 86 | 1023.9 |
| 20260904004457 | 77 | 248 | 2.0 | 2.0 | 0.00 | 0.00 | 0.00 | 87 | 1024.1 |
| 20260904003454 | 77 | 253 | 2.0 | 4.0 | 0.00 | 0.00 | 0.00 | 87 | 1024.1 |
| 20260904002450 | 77 | 257 | 3.0 | 4.0 | 0.00 | 0.00 | 0.00 | 88 | 1024.1 |
| 20260904001508 | 77 | 253 | 3.0 | 4.0 | 0.00 | 0.00 | 0.00 | 89 | 1024.2 |
| 20260904000444 | 78 | 270 | 3.0 | 4.0 | 0.00 | 0.00 | 0.00 | 89 | 1024.2 |
| 20260903235440 | 78 | 255 | 2.0 | 2.0 | 0.00 | 0.00 | 0.00 | 89 | 1024.3 |
| 20260903234437 | 78 | 251 | 3.0 | 4.0 | 0.00 | 0.00 | 0.00 | 89 | 1024.4 |
| 20260903233434 | 78 | 264 | 3.0 | 4.0 | 0.00 | 0.00 | 0.00 | 89 | 1024.3 |
| 20260903232431 | 79 | 270 | 3.0 | 4.0 | 0.00 | 0.00 | 0.00 | 88 | 1024.3 |
| 20260903231428 | 79 | 276 | 2.0 | 4.0 | 0.00 | 0.00 | 0.00 | 88 | 1024.3 |
| 20260903230425 | 79 | 0 | 1.0 | 4.0 | 0.00 | 0.00 | 0.00 | 88 | 1024.4 |
| 20260903225421 | 79 | 0 | 1.0 | 2.0 | 0.00 | 0.00 | 0.00 | 88 | 1024.4 |
| 20260903224439 | 79 | 0 | 1.0 | 2.0 | 0.00 | 0.00 | 0.00 | 88 | 1024.5 |
| 20260903223555 | 80 | 23 | 1.0 | 2.0 | 0.00 | 0.00 | 0.00 | 88 | 1024.5 |
| 20260903222511 | 80 | 23 | 1.0 | 2.0 | 0.00 | 0.00 | 0.00 | 88 | 1024.7 |
| 20260903221509 | 80 | 0.0 | 0.0 | 0.00 | 0.00 | 0.00 | 88 | 1024.7 | |
| 20260903220526 | 80 | 0.0 | 0.0 | 0.00 | 0.00 | 0.00 | 88 | 1024.8 | |
| 20260903215522 | 80 | 23 | 1.0 | 2.0 | 0.00 | 0.00 | 0.00 | 88 | 1024.8 |
| 20260903214458 | 80 | 23 | 1.0 | 2.0 | 0.00 | 0.00 | 0.00 | 88 | 1024.9 |
| 20260903213455 | 80 | 0.0 | 2.0 | 0.00 | 0.00 | 0.00 | 88 | 1025.0 | |
| 20260903212452 | 80 | 23 | 1.0 | 2.0 | 0.00 | 0.00 | 0.00 | 87 | 1025.0 |
| 20260903211448 | 80 | 23 | 1.0 | 4.0 | 0.00 | 0.00 | 0.00 | 87 | 1025.0 |
| 20260903210527 | 80 | 23 | 1.0 | 2.0 | 0.00 | 0.00 | 0.00 | 87 | 1025.1 |
| 20260903205503 | 80 | 23 | 0.0 | 2.0 | 0.00 | 0.00 | 0.00 | 87 | 1025.1 |
| 20260903204519 | 80 | 23 | 1.0 | 2.0 | 0.00 | 0.00 | 0.00 | 87 | 1025.0 |
| 20260903203436 | 80 | 45 | 0.0 | 2.0 | 0.00 | 0.00 | 0.00 | 87 | 1024.9 |
| 20260903202433 | 80 | 11 | 3.0 | 6.0 | 0.00 | 0.00 | 0.00 | 87 | 1024.8 |
| 20260903201429 | 80 | 0.0 | 0.0 | 0.00 | 0.00 | 0.00 | 87 | 1024.8 | |
| 20260903200426 | 80 | 45 | 2.0 | 4.0 | 0.00 | 0.00 | 0.00 | 87 | 1024.8 |
| 20260903195424 | 80 | 45 | 1.0 | 2.0 | 0.00 | 0.00 | 0.00 | 87 | 1024.6 |
| 20260903194419 | 80 | 90 | 1.0 | 4.0 | 0.00 | 0.00 | 0.00 | 87 | 1024.4 |
| 20260903193519 | 80 | 76 | 1.0 | 4.0 | 0.00 | 0.00 | 0.00 | 87 | 1024.3 |
| 20260903192514 | 81 | 45 | 2.0 | 4.0 | 0.00 | 0.00 | 0.00 | 86 | 1024.1 |
| 20260903191511 | 81 | 51 | 4.0 | 7.0 | 0.00 | 0.00 | 0.00 | 86 | 1024.0 |
| 20260903190508 | 81 | 101 | 2.0 | 4.0 | 0.00 | 0.00 | 0.00 | 85 | 1023.9 |
| 20260903185525 | 81 | 50 | 3.0 | 7.0 | 0.00 | 0.00 | 0.00 | 85 | 1023.7 |
| 20260903184520 | 81 | 72 | 2.0 | 4.0 | 0.00 | 0.00 | 0.00 | 85 | 1023.6 |
| 20260903183457 | 81 | 68 | 2.0 | 4.0 | 0.00 | 0.00 | 0.00 | 85 | 1023.7 |
| 20260903182454 | 81 | 59 | 7.0 | 9.0 | 0.00 | 0.00 | 0.00 | 84 | 1023.6 |
| 20260903181450 | 81 | 84 | 5.0 | 8.0 | 0.00 | 0.00 | 0.00 | 84 | 1023.5 |
| 20260903180447 | 81 | 51 | 6.0 | 8.0 | 0.00 | 0.00 | 0.00 | 83 | 1023.5 |
| 20260903175444 | 81 | 68 | 4.0 | 7.0 | 0.00 | 0.00 | 0.00 | 84 | 1023.5 |
| 20260903174441 | 82 | 74 | 9.0 | 11.0 | 0.00 | 0.00 | 0.00 | 83 | 1023.4 |
| 20260903173438 | 82 | 105 | 8.0 | 11.0 | 0.00 | 0.00 | 0.00 | 80 | 1023.4 |
| 20260903172434 | 82 | 51 | 5.0 | 9.0 | 0.00 | 0.00 | 0.00 | 81 | 1023.4 |
| 20260903171431 | 82 | 68 | 10.0 | 14.0 | 0.00 | 0.00 | 0.00 | 80 | 1023.2 |
| 20260903170429 | 83 | 98 | 4.0 | 8.0 | 0.00 | 0.00 | 0.00 | 78 | 1023.3 |
| 20260903165425 | 83 | 68 | 5.0 | 8.0 | 0.00 | 0.00 | 0.00 | 76 | 1023.4 |
| 20260903164443 | 83 | 90 | 9.0 | 14.0 | 0.00 | 0.00 | 0.00 | 73 | 1023.5 |
| 20260903163418 | 82 | 70 | 7.0 | 14.0 | 0.00 | 0.00 | 0.00 | 77 | 1023.3 |
| 20260903162416 | 83 | 45 | 6.0 | 13.0 | 0.00 | 0.00 | 0.00 | 77 | 1023.4 |
| 20260903161512 | 83 | 75 | 4.0 | 7.0 | 0.00 | 0.00 | 0.00 | 77 | 1023.4 |
| 20260903160508 | 83 | 45 | 8.0 | 15.0 | 0.00 | 0.00 | 0.00 | 78 | 1023.4 |
| 20260903155505 | 84 | 68 | 8.0 | 14.0 | 0.00 | 0.00 | 0.00 | 74 | 1023.5 |
| 20260903154502 | 83 | 111 | 7.0 | 13.0 | 0.00 | 0.00 | 0.00 | 76 | 1023.5 |
| 20260903153500 | 83 | 90 | 10.0 | 14.0 | 0.00 | 0.00 | 0.00 | 74 | 1023.5 |
| 20260903152455 | 84 | 101 | 7.0 | 11.0 | 0.00 | 0.00 | 0.00 | 74 | 1023.5 |
| 20260903151452 | 84 | 45 | 9.0 | 13.0 | 0.00 | 0.00 | 0.00 | 75 | 1023.6 |
| 20260903150449 | 84 | 101 | 6.0 | 9.0 | 0.00 | 0.00 | 0.00 | 72 | 1023.6 |
| 20260903145445 | 84 | 96 | 11.0 | 18.0 | 0.00 | 0.00 | 0.00 | 70 | 1023.7 |
| 20260903144444 | 84 | 90 | 7.0 | 13.0 | 0.00 | 0.00 | 0.00 | 71 | 1023.8 |
| 20260903143439 | 85 | 76 | 10.0 | 15.0 | 0.00 | 0.00 | 0.00 | 67 | 1023.8 |
| 20260903142437 | 86 | 136 | 8.0 | 13.0 | 0.00 | 0.00 | 0.00 | 66 | 1023.9 |
| 20260903141434 | 87 | 89 | 5.0 | 13.0 | 0.00 | 0.00 | 0.00 | 61 | 1023.9 |
| 20260903140429 | 86 | 68 | 7.0 | 9.0 | 0.00 | 0.00 | 0.00 | 64 | 1024.0 |
| 20260903135426 | 87 | 57 | 4.0 | 9.0 | 0.00 | 0.00 | 0.00 | 61 | 1023.9 |
| 20260903134423 | 86 | 63 | 8.0 | 13.0 | 0.00 | 0.00 | 0.00 | 61 | 1024.1 |
| 20260903133440 | 86 | 59 | 7.0 | 11.0 | 0.00 | 0.00 | 0.00 | 65 | 1024.1 |
| 20260903132416 | 86 | 68 | 9.0 | 13.0 | 0.00 | 0.00 | 0.00 | 65 | 1024.3 |
| 20260903131514 | 86 | 68 | 5.0 | 11.0 | 0.00 | 0.00 | 0.00 | 63 | 1024.3 |
| 20260903130510 | 87 | 91 | 6.0 | 13.0 | 0.00 | 0.00 | 0.00 | 61 | 1024.4 |
| 20260903125508 | 86 | 68 | 7.0 | 11.0 | 0.00 | 0.00 | 0.00 | 62 | 1024.3 |
| 20260903124504 | 88 | 193 | 2.0 | 8.0 | 0.00 | 0.00 | 0.00 | 58 | 1024.6 |
| 20260903123501 | 87 | 124 | 6.0 | 11.0 | 0.00 | 0.00 | 0.00 | 57 | 1024.7 |
| 20260903122457 | 88 | 93 | 5.0 | 11.0 | 0.00 | 0.00 | 0.00 | 60 | 1024.7 |
| 20260903121454 | 87 | 90 | 6.0 | 11.0 | 0.00 | 0.00 | 0.00 | 61 | 1024.8 |
| 20260903120452 | 87 | 119 | 4.0 | 8.0 | 0.00 | 0.00 | 0.00 | 63 | 1024.8 |
| 20260903115448 | 86 | 100 | 7.0 | 11.0 | 0.00 | 0.00 | 0.00 | 65 | 1025.0 |
| 20260903114504 | 85 | 86 | 6.0 | 9.0 | 0.00 | 0.00 | 0.00 | 70 | 1024.9 |
| 20260903113442 | 87 | 90 | 2.0 | 4.0 | 0.00 | 0.00 | 0.00 | 71 | 1025.0 |
| 20260903112438 | 85 | 90 | 3.0 | 6.0 | 0.00 | 0.00 | 0.00 | 70 | 1025.1 |
| 20260903111434 | 85 | 80 | 2.0 | 9.0 | 0.00 | 0.00 | 0.00 | 72 | 1025.1 |
| 20260903110431 | 85 | 128 | 6.0 | 11.0 | 0.00 | 0.00 | 0.00 | 70 | 1025.3 |
| 20260903105428 | 85 | 169 | 5.0 | 9.0 | 0.00 | 0.00 | 0.00 | 72 | 1025.4 |
| 20260903104425 | 85 | 226 | 5.0 | 9.0 | 0.00 | 0.00 | 0.00 | 71 | 1025.5 |
| 20260903103423 | 85 | 87 | 5.0 | 11.0 | 0.00 | 0.00 | 0.00 | 72 | 1025.6 |
| 20260903102419 | 86 | 141 | 3.0 | 7.0 | 0.00 | 0.00 | 0.00 | 70 | 1025.6 |
| 20260903101415 | 85 | 108 | 4.0 | 6.0 | 0.00 | 0.00 | 0.00 | 74 | 1025.6 |
| 20260903100512 | 85 | 170 | 3.0 | 9.0 | 0.00 | 0.00 | 0.00 | 75 | 1025.6 |
| 20260903095509 | 85 | 105 | 5.0 | 9.0 | 0.00 | 0.00 | 0.00 | 73 | 1025.5 |
| 20260903094505 | 85 | 68 | 6.0 | 8.0 | 0.00 | 0.00 | 0.00 | 72 | 1025.6 |
| 20260903093502 | 85 | 61 | 2.0 | 4.0 | 0.00 | 0.00 | 0.00 | 74 | 1025.4 |
| 20260903092519 | 84 | 68 | 3.0 | 6.0 | 0.00 | 0.00 | 0.00 | 74 | 1025.5 |
| 20260903091456 | 84 | 0.0 | 2.0 | 0.00 | 0.00 | 0.00 | 74 | 1025.5 | |
| 20260903090452 | 84 | 0.0 | 0.0 | 0.00 | 0.00 | 0.00 | 74 | 1025.5 | |
| 20260903085450 | 84 | 113 | 1.0 | 4.0 | 0.00 | 0.00 | 0.00 | 74 | 1025.5 |
| 20260903084446 | 83 | 23 | 0.0 | 2.0 | 0.00 | 0.00 | 0.00 | 75 | 1025.3 |
| 20260903083444 | 83 | 23 | 0.0 | 2.0 | 0.00 | 0.00 | 0.00 | 76 | 1025.4 |
| 20260903082440 | 84 | 210 | 1.0 | 2.0 | 0.00 | 0.00 | 0.00 | 75 | 1025.4 |
| 20260903081458 | 84 | 0.0 | 0.0 | 0.00 | 0.00 | 0.00 | 77 | 1025.3 | |
| 20260903080433 | 82 | 0.0 | 2.0 | 0.00 | 0.00 | 0.00 | 80 | 1025.4 | |
| 20260903075430 | 81 | 38 | 1.0 | 2.0 | 0.00 | 0.00 | 0.00 | 79 | 1025.3 |
| 20260903074427 | 81 | 0.0 | 2.0 | 0.00 | 0.00 | 0.00 | 80 | 1025.3 | |
| 20260903073423 | 80 | 0.0 | 0.0 | 0.00 | 0.00 | 0.00 | 80 | 1025.2 | |
| 20260903072420 | 81 | 0.0 | 2.0 | 0.00 | 0.00 | 0.00 | 81 | 1025.3 | |
| 20260903071417 | 79 | 0.0 | 0.0 | 0.00 | 0.00 | 0.00 | 83 | 1025.1 | |
| 20260903070515 | 78 | 0.0 | 0.0 | 0.00 | 0.00 | 0.00 | 84 | 1025.2 | |
| 20260903065511 | 78 | 315 | 1.0 | 2.0 | 0.00 | 0.00 | 0.00 | 85 | 1025.2 |
| 20260903064508 | 79 | 0.0 | 0.0 | 0.00 | 0.00 | 0.00 | 86 | 1025.0 | |
| 20260903063504 | 78 | 0.0 | 0.0 | 0.00 | 0.00 | 0.00 | 88 | 1024.9 | |
| 20260903062501 | 77 | 0.0 | 0.0 | 0.00 | 0.00 | 0.00 | 89 | 1024.8 | |
| 20260903061458 | 76 | 0.0 | 0.0 | 0.00 | 0.00 | 0.00 | 90 | 1024.8 |